Home > Weather > Jessheim > Past weeks

Flag for Norway Weather for the Past 2 Weeks in Jessheim, Norway

Now
21 °F

Light snow. Passing clouds.


Feels Like: 13 °F
Forecast: 11 / 24 °F
Wind: 7 mph from North

Location: Oslo Gardermoen Airport

Current Time: Feb 13, 2016 at 8:38:29 AM

Latest Report: Feb 13, 2016 at 7:50 AM


Visibility: 4 mi

Pressure: 29.39 "Hg

Humidity: 86%

Dew point: 18 °F

Location of JessheimLocation

Historic Weather in Jessheim — Graph

°F

Jessheim Temperature Yesterday

Maximum temperature yesterday: 28 °F (at 1:20 PM)
Minimum temperature yesterday: 25 °F (at 12:20 AM)
Average temperature yesterday: 26 °F

High & Low Weather Summary for the Past Weeks

 TemperatureHumidityPressure
High41 °F (Jan 29, 4:50 PM)100% (Jan 29, 10:50 AM)29.86 "Hg (Jan 29, 10:50 AM)
Low19 °F (Feb 1, 4:20 AM)38% (Feb 4, 1:20 PM)28.74 "Hg (Feb 9, 3:50 AM)
Average32 °F77%29.22 "Hg
* Reported Jan 29 7:20 AM — Feb 13 7:20 AM, Jessheim, Weather by CustomWeather, © 2016

Note: Actual official high and low records may vary slightly from our data, if they occured in-between our weather recording intervals... More about our weather records

Advertising

Jessheim Weather History for the Previous 24 Hours

 ConditionsComfort  
Time TempWeatherWind HumidityBarometerVisibility
7:20 AM
Sat, Feb 13
21 °FLight snow. Partly cloudy.9 mph80%29.39 "Hg4 mi
6:50 AM23 °FLight snow. Passing clouds.7 mph74%29.39 "Hg6 mi
6:20 AM23 °FLight snow. Passing clouds.7 mph74%29.39 "HgN/A
5:50 AM23 °FLight snow. Passing clouds.9 mph74%29.39 "HgN/A
5:20 AM23 °FLight snow. Partly cloudy.3 mph80%29.39 "HgN/A
4:50 AM23 °FLight snow. Overcast.8 mph74%29.39 "HgN/A
4:20 AM23 °FLight snow. Mostly cloudy.7 mph74%29.39 "HgN/A
3:50 AM23 °FLight snow. Passing clouds.3 mph74%29.39 "HgN/A
3:20 AM23 °FPassing clouds.3 mph74%29.42 "HgN/A
2:50 AM23 °FPassing clouds.3 mph80%29.42 "HgN/A
2:20 AM23 °FOvercast.6 mph80%29.42 "HgN/A
1:50 AM23 °FPassing clouds.7 mph80%29.42 "HgN/A
1:20 AM23 °FLight snow. Clear.7 mph80%29.42 "HgN/A
12:50 AM23 °FLight snow. Passing clouds.9 mph80%29.42 "Hg6 mi
12:20 AM25 °FLight snow. Partly cloudy.9 mph74%29.42 "Hg5 mi
11:50 PM
Fri, Feb 12
25 °FLight snow. Passing clouds.8 mph80%29.45 "Hg5 mi
11:20 PM25 °FLight snow. Overcast.8 mph80%29.45 "Hg3 mi
10:50 PM25 °FLight snow. Passing clouds.9 mph80%29.45 "Hg3 mi
10:20 PM25 °FLight snow. Overcast.9 mph80%29.45 "Hg2 mi
9:50 PM25 °FLight snow. Passing clouds.9 mph80%29.45 "Hg3 mi
9:20 PM25 °FLight snow. Partly cloudy.9 mph80%29.45 "Hg3 mi
8:50 PM25 °FLight snow. Ice fog.9 mph80%29.45 "Hg2 mi
8:20 PM25 °FLight snow. Overcast.9 mph80%29.45 "Hg3 mi
7:50 PM25 °FLight snow. Passing clouds.8 mph80%29.45 "Hg4 mi
7:20 PM25 °FLight snow. Mostly cloudy.8 mph80%29.45 "Hg4 mi
6:50 PM25 °FLight snow. Passing clouds.7 mph80%29.45 "Hg3 mi
6:20 PM25 °FLight snow. Passing clouds.8 mph80%29.45 "Hg4 mi
5:50 PM25 °FLight snow. Partly cloudy.9 mph80%29.45 "Hg5 mi
5:20 PM25 °FLight snow. Passing clouds.13 mph74%29.45 "HgN/A
4:50 PM27 °FLight snow. Overcast.12 mph64%29.45 "HgN/A
4:20 PM27 °FLight snow. Partly sunny.14 mph64%29.45 "HgN/A
3:50 PM27 °FLight mixture of precip. Partly sunny.12 mph59%29.45 "HgN/A
3:20 PM27 °FLight mixture of precip. Partly sunny.10 mph59%29.45 "HgN/A
2:50 PM27 °FLight snow. Broken clouds.18 mph59%29.47 "HgN/A
2:20 PM28 °FPartly sunny.12 mph51%29.47 "HgN/A
1:50 PM28 °FLight snow. Partly sunny.13 mph51%29.47 "HgN/A
1:20 PM28 °FLight mixture of precip. Partly sunny.15 mph51%29.47 "HgN/A
12:50 PM27 °FPassing clouds.14 mph54%29.47 "HgN/A
12:20 PM27 °FPartly sunny.17 mph50%29.50 "HgN/A
11:50 AM27 °FSunny.18 mph50%29.50 "Hg10 mi
11:20 AM27 °FPartly sunny.16 mph50%29.50 "HgN/A
10:50 AM27 °FPassing clouds.18 mph50%29.50 "HgN/A
10:20 AM27 °FSunny.17 mph54%29.53 "Hg10 mi
9:50 AM27 °FSunny.16 mph54%29.53 "Hg10 mi
9:20 AM27 °FSunny.16 mph54%29.53 "Hg10 mi
8:50 AM27 °FPassing clouds.15 mph54%29.53 "HgN/A
8:20 AM27 °FPassing clouds.16 mph59%29.53 "HgN/A
Weather by CustomWeather, © 2016

See weather overviewHow to use our weather pages